Location:  
MeteoStar


Sort by weather type Sort by elevation Sort by visibility Sort from west to east north Sort from north to south Alphabetically Sort from strongest wind speed Sort from lowest to highest pressure Sort from highest to lowest dew point temperature Sort coolest temperatures to warmest Sort warm temperatures to coolest
 Metric

Current Observations for United Kingdom sorted from warmest to coolest

Guernsey Airport19:20ZClear48 4151010.3SSW 15 42334
Isle Of Man / Ronaldsway Airport19:20ZCloudy46 415998.1W 17 Gusting to 28 3955
Jersey Airport19:20ZClear46 4151011.2SW 14 40275
Benbecula19:20ZClear45 364991.1W 23 3619
Shoreham Airport19:20ZClear45 3751009.1SW 10 406
Exeter Airport19:20ZPartly Cloudy43 4141007.2S 8 3898
Bournemouth Airport19:20ZClear43 3951008.1S 4 4136
Cardiff-Wales Airport19:20ZLight Rain43 4151006.3SSW 9 38219
Prestwick Airport19:20ZLight Rain41 394994.2SW 19 3265
Wick19:20ZNot Avail.41 345991.2SSW 8 36127
Sumburgh Cape 19:20ZMostly Cloudy41 345992.1S 14 3316
Kirkwall Airport19:20ZClear41 365991.2S 11 3468
London City Airport19:20ZClear41 3451009.1S 6 Gusting to 16 3716
Bristol / Lulsgate 19:20ZLight Rain41 3751006.5SSW 9 35620
Belfast / Harbour19:20ZMostly Cloudy41 39998.1S 13 3416
Stornoway19:20ZLight Rain39 374989.1SW 6 3529
Edinburgh Airport19:20ZRain39 365995.2SSW 9 33134
Lydd Airport 19:20ZClear39 3451011.1SSW 8 339
Scatsa / Shetland Island19:20ZClear37 304991.2S 12 2972
Glasgow Airport19:20ZLight Rain37 365994.1ESE 6 3226
Newcastle 19:20ZClear37 345999.3S 5 33265
Leeds And Bradford19:20ZLight Rain37 3451001.7SSW 9 30682
Blackpool Airport19:20ZLight Rain37 3651001.1SSE 14 2832
Farnborough19:20ZNot Avail.37 3651008.3S 7 32213
London / Gatwick Airport19:20ZNot Avail.37 3451009.3S 4 34203
Biggin Hill 19:20ZNot Avail.37 3451009.6S 9 30600
Liverpool Airport 19:20ZLight Rain37 3651002.2SSE 10 3085
Belfast / Aldergrove Airport19:20ZClear37 37998.3WSW 13 29265
Inverness / Dalcross19:20ZLight Rain36 345991.1N 2 3629
East Midlands19:20ZNot Avail.36 3251005.4SSW 12 28308
Tees-Side19:20ZDrizzle36 3251000.2S 13 27121
Hawarden19:20ZClear36 3451003.1SSE 10 2932
Southend-On-Sea 19:20ZNot Avail.36 3051009.2SSW 9 2949
London / Heathrow Airport19:20ZClear36 3251009.2S 7 3078
Manchester Airport19:20ZLight Rain36 341003.3S 6 31226
Norwich Weather Centre19:20ZNot Avail.34 3241008.2SSW 8 2745
Aberdeen / Dyce19:20ZClear34 305994.3S 10 26213
Humberside19:20ZNot Avail.34 3251004.2S 14 25101
Southampton / Weather Centre19:20ZClear34 3451009.1E 1 3429
Luton Airport 19:20ZClear34 3051007.6SSW 8 27524
Birmingham / Airport19:20ZLight Rain34 341005.4SSE 7 28324
Stansted Airport19:20ZClear32 3041008.5S 8 25347

Atlantic
Tropical Watch